Location: Karlovy Vary
(50.2167°N, 12.9000°E)
Time: 07:49:25
(UTC+02:00)

ISS - Visible Passes

Search period start: 25 September 2018 00:00
Search period end: 05 October 2018 00:00
Orbit: 403 x 408 km, 51.6° (Epoch: 25 September)

Date Brightness Start Highest point End Pass type
(mag) Time Alt. Az. Time Alt. Az. Time Alt. Az.
25 Sep -2.2 19:27:50 10° SSW 19:30:22 21° SE 19:32:54 10° E visible
25 Sep -3.6 21:03:13 10° WSW 21:06:04 62° SW 21:06:04 62° SW visible
26 Sep -3.7 20:11:27 10° SW 20:14:41 55° SSE 20:16:23 24° E visible
26 Sep -1.2 21:47:55 10° W 21:49:05 20° W 21:49:05 20° W visible
27 Sep -3.8 20:55:58 10° W 20:59:16 77° N 20:59:18 77° N visible
28 Sep -3.9 20:04:03 10° WSW 20:07:22 86° SSE 20:09:26 21° ENE visible
28 Sep -1.4 21:40:42 10° W 21:42:06 23° WNW 21:42:06 23° WNW visible
29 Sep -3.7 20:48:44 10° W 20:52:02 66° N 20:52:11 65° NNE visible
30 Sep -3.7 19:56:46 10° W 20:00:04 72° N 20:02:14 20° ENE visible
30 Sep -1.5 21:33:24 10° WNW 21:34:54 24° WNW 21:34:54 24° WNW visible
01 Oct -3.8 20:41:27 10° WNW 20:44:45 69° N 20:44:55 67° NNE visible
02 Oct -3.6 19:49:28 10° W 19:52:45 66° N 19:54:55 19° E visible
02 Oct -1.6 21:26:02 10° WNW 21:27:35 25° W 21:27:35 25° W visible
03 Oct -4.0 20:34:04 10° WNW 20:37:23 85° N 20:37:35 77° E visible
04 Oct -3.7 19:42:05 10° WNW 19:45:23 72° N 19:47:35 19° E visible
04 Oct -1.6 21:18:40 10° W 21:20:15 24° W 21:20:15 24° W visible
